[[[{"header":{"parameterUnit":"kt","parameterCategory":2,"dx":1,"dy":1,"la1":30.253999710083008,"la2":30.299108505249023,"lo1":-89.0895004272461,"lo2":-89.04439544677734,"nx":28,"ny":28,"refTime":"2022-10-09T21:00:00:Z","depth":0,"parameterNumber":1,"parameterNumberName":"U-component_of_WINDS"},"data":[-3.7156,-3.7178,-3.7138,-3.7145,-3.7111,-3.7109,-3.7096,-3.7075,-3.7047,-3.7041,-3.703,-3.6992,-3.695,-3.6927,-3.6914,-3.6897,-3.6896,-3.6933,-3.6908,-3.6776,-3.6756,-3.6736,-3.6729,-3.6933,-3.6933,-3.7052,-3.7053,-3.7054,-3.7065,-3.7031,-3.7022,-3.6988,-3.698,-3.692,-3.6888,-3.6886,-3.6886,-3.6852,-3.6839,-3.683,-3.6817,-3.676,-3.6742,-3.6752,-3.6724,-3.6751,-3.6751,-3.6746,-3.6603,-3.6596,-3.6774,-3.6774,-3.6774,-3.6774,-3.6774,-3.6774,-3.6889,-3.6904,-3.6859,-3.6849,-3.682,-3.6797,-3.6804,-3.6757,-3.6748,-3.6723,-3.6676,-3.6675,-3.6634,-3.6591,-3.6567,-3.6566,-3.6529,-3.6546,-3.6551,-3.6557,-3.6571,-3.6411,-3.656,-3.6559,-3.6558,-3.6558,-3.6557,0,-3.6749,-3.6715,-3.6703,-3.6681,-3.6671,-3.6649,-3.6622,-3.6625,-3.6538,-3.6534,-3.6525,-3.6514,-3.6491,-3.6479,-3.6452,-3.6422,-3.6362,-3.6349,-3.6362,-3.6387,-3.6414,-3.6404,-3.6175,-3.6346,-3.6344,-3.6343,-3.6342,-3.6341,-3.6572,-3.6593,-3.6525,-3.6523,-3.6498,-3.6495,-3.6485,-3.6406,-3.6399,-3.6354,-3.637,-3.6356,-3.6341,-3.6334,-3.6279,-3.6261,-3.6232,-3.6303,-3.623,-3.6252,-3.6238,-3.6239,-3.6242,-3.632,-3.6323,-3.6325,-3.6327,0,-3.6477,-3.6411,-3.6429,-3.636,-3.6343,-3.6369,-3.631,-3.632,-3.6272,-3.628,-3.6277,-3.6203,-3.6196,-3.6128,-3.6105,-3.607,-3.6115,-3.6084,-3.6129,-3.6121,-3.6179,-3.6176,-3.6374,-3.6397,-3.6182,-3.6184,-3.6185,0,-3.6302,-3.6331,-3.623,-3.6245,-3.6274,-3.6194,-3.6226,-3.6188,-3.6149,-3.6155,-3.6073,-3.608,-3.5991,-3.5989,-3.5937,-3.596,-3.5955,-3.5931,-3.5918,-3.594,-3.5944,-3.5938,-3.593,-3.5882,-3.5881,-3.588,-3.5879,0,-3.6163,-3.6142,-3.6163,-3.6148,-3.6077,-3.6089,-3.606,-3.6016,-3.6007,-3.5983,-3.5977,-3.5955,-3.5944,-3.5929,-3.5864,-3.5817,-3.5889,-3.5811,-3.5865,-3.5867,-3.5887,-3.5887,-3.6076,-3.5878,-3.5878,-3.5877,-3.5877,0,-3.6012,-3.5989,-3.603,-3.5969,-3.5967,-3.5981,-3.5954,-3.595,-3.5909,-3.5877,-3.5858,-3.5796,-3.5808,-3.5736,-3.5753,-3.5711,-3.5705,-3.5682,-3.5684,-3.5685,-3.5607,-3.5728,-3.5911,-3.593,-3.5681,-3.5679,-3.5678,0,-3.5873,-3.5896,-3.5826,-3.5866,-3.5867,-3.5776,-3.579,-3.5756,-3.5714,-3.5709,-3.5662,-3.5657,-3.5589,-3.5578,-3.5594,-3.5547,-3.5601,-3.5537,-3.5535,-3.5536,-3.5553,-3.572,-3.5766,-3.5878,-3.5656,-3.5658,-3.566,0,-3.5758,-3.567,-3.5682,-3.5661,-3.5602,-3.5602,-3.5617,-3.5594,-3.5595,-3.5564,-3.5577,-3.5566,-3.5515,-3.5498,-3.5445,-3.5466,-3.5562,-3.5408,-3.5406,-3.5441,-3.5638,-3.5682,-3.5701,-3.5522,-3.5525,-3.5527,-3.5642,0,-3.5551,-3.5552,-3.558,-3.5536,-3.5525,-3.5545,-3.5471,-3.5469,-3.5419,-3.5374,-3.5389,-3.5343,-3.532,-3.5321,-3.5273,-3.5341,-3.532,-3.5265,-3.5193,-3.5302,-3.5339,-3.5353,-3.5144,-3.5142,-3.514,-3.5138,0,0,-3.5436,-3.5436,-3.5359,-3.5371,-3.5357,-3.5261,-3.529,-3.5264,-3.5217,-3.521,-3.5168,-3.5148,-3.5112,-3.5138,-3.5166,-3.5156,-3.5162,-3.5127,-3.525,-3.5263,-3.5274,-3.5315,-3.5331,-3.5134,-3.5133,-3.5132,-3.5132,0,-3.5346,-3.531,-3.5338,-3.5308,-3.5261,-3.5212,-3.5219,-3.5156,-3.5129,-3.5141,-3.5064,-3.5064,-3.5049,-3.5022,-3.5007,-3.5121,-3.5063,-3.5118,-3.5206,-3.523,-3.5246,-3.526,-3.5303,-3.5319,-3.5126,-3.5127,-3.5127,0,-3.5221,-3.5174,-3.518,-3.5141,-3.511,-3.5112,-3.5018,-3.5024,-3.5025,-3.4921,-3.4936,-3.49,-3.4857,-3.489,-3.4902,-3.4865,-3.4978,-3.4928,-3.494,-3.494,-3.496,-3.4979,-3.4996,-3.4775,-3.4774,-3.4773,0,0,-3.5154,-3.5153,-3.5079,-3.5116,-3.5102,-3.5028,-3.5022,-3.4971,-3.4934,-3.492,-3.4873,-3.484,-3.483,-3.4826,-3.4813,-3.4859,-3.4846,-3.4888,-3.4904,-3.4918,-3.4927,-3.4951,-3.4969,-3.477,-3.477,-3.477,0,0,-3.5121,-3.5036,-3.4992,-3.5026,-3.4993,-3.4922,-3.4948,-3.4893,-3.4873,-3.4863,-3.4778,-3.4766,-3.4795,-3.4763,-3.4725,-3.4787,-3.4716,-3.4723,-3.4807,-3.4827,-3.4843,-3.4851,-3.4623,0,0,0,0,0,-3.4992,-3.5046,-3.5007,-3.5002,-3.4953,-3.4944,-3.4937,-3.4868,-3.482,-3.4842,-3.4794,-3.4732,-3.4726,-3.469,-3.4686,-3.473,-3.4725,-3.4733,-3.4741,-3.4858,-3.488,-3.4898,0,0,0,0,0,0,-3.4989,-3.4983,-3.5005,-3.4938,-3.4926,-3.4941,-3.4844,-3.4827,-3.4816,-3.4804,-3.4743,-3.473,-3.4671,-3.4687,-3.4685,-3.4728,-3.4624,-3.4728,-3.4735,-3.4741,-3.4866,-3.4884,-3.4899,0,0,0,0,0,-3.4986,-3.4981,-3.492,-3.4937,-3.4926,-3.4848,-3.4842,-3.4826,-3.4816,-3.4742,-3.4727,-3.4765,-3.4674,-3.4667,-3.4685,-3.4731,-3.4625,-3.4624,-3.4733,-3.4738,-3.4743,-3.4875,0,0,0,0,0,0,-3.4984,-3.4967,-3.4917,-3.4911,-3.4911,-3.4845,-3.4833,-3.4827,-3.4754,-3.474,-3.476,-3.4752,-3.4677,-3.4671,-3.4667,-3.4736,-3.4626,-3.4625,-3.4625,-3.4737,-3.4741,-3.4745,0,0,0,0,0,0,-3.4969,-3.4963,-3.4914,-3.4885,-3.4875,-3.4844,-3.4832,-3.4837,-3.4755,-3.4776,-3.4766,-3.4757,-3.4684,-3.4674,-3.467,-3.468,-3.4626,-3.4626,-3.4625,-3.4625,-3.474,-3.4743,0,0,0,0,0,0,-3.4966,-3.496,-3.4886,-3.4879,-3.487,-3.4801,-3.4846,-3.48,-3.473,-3.4781,-3.4721,-3.4718,-3.4689,-3.4683,-3.4673,-3.4686,-3.4682,-3.4626,-3.4626,-3.4626,-3.4625,0,0,0,0,0,0,0,-3.4962,-3.5015,-3.495,-3.4873,-3.4865,-3.4859,-3.4857,-3.4856,-3.4729,-3.4725,-3.4722,-3.4719,-3.4629,-3.4629,-3.4628,-3.469,0,0,-3.4626,-3.4626,0,0,0,0,0,0,0,0,-3.5016,-3.5016,-3.495,-3.4949,-3.4948,-3.4858,-3.4857,-3.4856,-3.4728,-3.4726,-3.4723,-3.472,-3.4629,-3.4629,-3.4628,0,0,0,0,0,0,0,0,0,0,0,0,0,0,0,-3.495,-3.4949,0,-3.4858,-3.4857,-3.4856,-3.4728,-3.4726,-3.4723,-3.4721,-3.4629,-3.4629,-3.4628,0,0,0,0,0,0,0,0,0,0,0,0,0,0,0,0,0,0,0,0,0,0,0,0,0,0,0,0,0,0,0,0,0,0,0,0,0,0,0,0,0,0,0,0,0,0,0,0,0,0,0,0,0,0,0,0,0,0,0,0,0,0,0,0,0,0,0,0,0]}],[{"header":{"parameterUnit":"kt","parameterCategory":2,"dx":1,"dy":1,"la1":30.253999710083008,"la2":30.299108505249023,"lo1":-89.0895004272461,"lo2":-89.04439544677734,"nx":28,"ny":28,"refTime":"2022-10-09T21:00:00:Z","depth":0,"parameterNumber":2,"parameterNumberName":"V-component_of_WINDS"},"data":[-4.7657,-4.7709,-4.7723,-4.7788,-4.7811,-4.7858,-4.7879,-4.7907,-4.7932,-4.7988,-4.8022,-4.8039,-4.8067,-4.811,-4.8147,-4.8153,-4.8169,-4.818,-4.8186,-4.8129,-4.8122,-4.8115,-4.8105,-4.8182,-4.8182,-4.8244,-4.8245,-4.8245,-4.762,-4.7644,-4.7682,-4.7727,-4.776,-4.7759,-4.7794,-4.7822,-4.7862,-4.7892,-4.7926,-4.7975,-4.8014,-4.8039,-4.8079,-4.8103,-4.8104,-4.8113,-4.8113,-4.8118,-4.8057,-4.8047,-4.8112,-4.8112,-4.8112,-4.8112,-4.8112,-4.8112,-4.7557,-4.7587,-4.7623,-4.7663,-4.7689,-4.7719,-4.7749,-4.7769,-4.7805,-4.7848,-4.7854,-4.7899,-4.793,-4.7982,-4.8001,-4.8037,-4.8029,-4.8042,-4.8046,-4.805,-4.8054,-4.797,-4.8043,-4.8043,-4.8043,-4.8043,-4.8042,0,-4.7516,-4.7526,-4.7561,-4.7602,-4.7631,-4.7663,-4.7693,-4.7712,-4.7732,-4.776,-4.7801,-4.7826,-4.7876,-4.7915,-4.7953,-4.797,-4.7971,-4.797,-4.798,-4.7981,-4.7978,-4.7984,-4.7888,-4.7968,-4.7968,-4.7967,-4.7967,-4.7967,-4.7457,-4.7488,-4.7529,-4.7553,-4.7572,-4.7609,-4.7633,-4.7648,-4.7673,-4.7711,-4.7735,-4.7774,-4.7806,-4.7867,-4.7888,-4.7924,-4.7925,-4.7955,-4.793,-4.793,-4.793,-4.7929,-4.7934,-4.796,-4.7961,-4.7962,-4.7962,0,-4.7423,-4.7443,-4.7494,-4.7531,-4.7541,-4.7572,-4.7603,-4.7631,-4.7646,-4.7687,-4.7697,-4.772,-4.7759,-4.7774,-4.7819,-4.7826,-4.788,-4.7877,-4.7871,-4.7873,-4.7904,-4.7903,-4.7997,-4.8012,-4.7928,-4.7929,-4.7929,0,-4.7381,-4.742,-4.7448,-4.7476,-4.7521,-4.7535,-4.7578,-4.7595,-4.7621,-4.7653,-4.7656,-4.7685,-4.7699,-4.7731,-4.7741,-4.7787,-4.7794,-4.7803,-4.7806,-4.7805,-4.7804,-4.7819,-4.7817,-4.7805,-4.7804,-4.7804,-4.7804,0,-4.7329,-4.7386,-4.7433,-4.7449,-4.749,-4.7511,-4.7529,-4.7557,-4.7579,-4.761,-4.7625,-4.7658,-4.7677,-4.7703,-4.7716,-4.7698,-4.777,-4.7749,-4.778,-4.778,-4.7797,-4.7796,-4.7873,-4.7803,-4.7803,-4.7803,-4.7803,0,-4.7298,-4.733,-4.7393,-4.7428,-4.7442,-4.7471,-4.7507,-4.7535,-4.7564,-4.7573,-4.7596,-4.7599,-4.7638,-4.7617,-4.7671,-4.7646,-4.7664,-4.7675,-4.7677,-4.7684,-4.7661,-4.7707,-4.7776,-4.7786,-4.7688,-4.7687,-4.7686,0,-4.7235,-4.7302,-4.7315,-4.7372,-4.7406,-4.7409,-4.744,-4.7466,-4.748,-4.7509,-4.7523,-4.7556,-4.7543,-4.7555,-4.7579,-4.7596,-4.7628,-4.7591,-4.7635,-4.7637,-4.7632,-4.7695,-4.7704,-4.7759,-4.7674,-4.7675,-4.7676,0,-4.7188,-4.7237,-4.7246,-4.7266,-4.7301,-4.7328,-4.7363,-4.7399,-4.7419,-4.7444,-4.7476,-4.7519,-4.7513,-4.7531,-4.7537,-4.7561,-4.7606,-4.755,-4.7551,-4.7563,-4.7667,-4.7676,-4.7685,-4.7604,-4.7606,-4.7607,-4.7667,0,-4.7145,-4.7179,-4.7203,-4.7243,-4.7266,-4.7301,-4.7317,-4.7339,-4.7343,-4.7356,-4.74,-4.7421,-4.7455,-4.7467,-4.747,-4.752,-4.7515,-4.7506,-4.7488,-4.7528,-4.7548,-4.7556,-4.7457,-4.7456,-4.7456,-4.7456,0,0,-4.7081,-4.713,-4.7141,-4.7176,-4.7196,-4.7197,-4.7234,-4.7252,-4.7289,-4.7303,-4.7293,-4.7357,-4.7374,-4.7426,-4.7439,-4.7451,-4.7463,-4.7447,-4.7508,-4.7513,-4.7519,-4.754,-4.7548,-4.7455,-4.7455,-4.7455,-4.7455,0,-4.7069,-4.7088,-4.7123,-4.7144,-4.7175,-4.7187,-4.7196,-4.7225,-4.7235,-4.7277,-4.7276,-4.7303,-4.7352,-4.7372,-4.7389,-4.7441,-4.7439,-4.7449,-4.7475,-4.7503,-4.7509,-4.7515,-4.7537,-4.7545,-4.7454,-4.7454,-4.7454,0,-4.7028,-4.7051,-4.7069,-4.7113,-4.7132,-4.7164,-4.715,-4.7182,-4.7206,-4.7203,-4.7244,-4.7257,-4.7283,-4.7328,-4.7349,-4.734,-4.7417,-4.7393,-4.7396,-4.7399,-4.7428,-4.7435,-4.7442,-4.7355,-4.7354,-4.7354,0,0,-4.7015,-4.7046,-4.7074,-4.7111,-4.7123,-4.7141,-4.7159,-4.7165,-4.7189,-4.7199,-4.7216,-4.7239,-4.7268,-4.7286,-4.7314,-4.736,-4.7367,-4.7381,-4.7385,-4.7389,-4.7394,-4.7423,-4.7431,-4.7353,-4.7352,-4.7352,0,0,-4.7009,-4.7043,-4.7043,-4.7089,-4.7113,-4.7141,-4.7163,-4.7163,-4.719,-4.7187,-4.7196,-4.7203,-4.7244,-4.7257,-4.7236,-4.7308,-4.7289,-4.7294,-4.7299,-4.7305,-4.7309,-4.7307,-4.7223,0,0,0,0,0,-4.7005,-4.7039,-4.7039,-4.7049,-4.7102,-4.7142,-4.7148,-4.7158,-4.7146,-4.7164,-4.7178,-4.7174,-4.7248,-4.723,-4.7239,-4.7262,-4.7334,-4.7337,-4.734,-4.7356,-4.7363,-4.7368,0,0,0,0,0,0,-4.7009,-4.7021,-4.7038,-4.7068,-4.708,-4.714,-4.7123,-4.7126,-4.7145,-4.7143,-4.7171,-4.7175,-4.7182,-4.7226,-4.7233,-4.7256,-4.722,-4.7335,-4.7338,-4.734,-4.7359,-4.7364,-4.7368,0,0,0,0,0,-4.7012,-4.7022,-4.7105,-4.7068,-4.7078,-4.7099,-4.7122,-4.7124,-4.7138,-4.716,-4.7164,-4.7144,-4.7183,-4.719,-4.723,-4.7252,-4.7215,-4.7218,-4.7337,-4.7339,-4.7341,-4.7361,0,0,0,0,0,0,-4.7015,-4.7025,-4.7107,-4.711,-4.7055,-4.7096,-4.7103,-4.7123,-4.7154,-4.7158,-4.7133,-4.7132,-4.7183,-4.7189,-4.7194,-4.7251,-4.7211,-4.7214,-4.7215,-4.7339,-4.734,-4.7342,0,0,0,0,0,0,-4.7019,-4.7028,-4.7109,-4.7093,-4.7094,-4.7093,-4.7099,-4.7133,-4.7155,-4.7126,-4.7126,-4.7133,-4.7174,-4.7188,-4.7192,-4.7246,-4.7207,-4.721,-4.7212,-4.7213,-4.734,-4.7341,0,0,0,0,0,0,-4.7023,-4.703,-4.7092,-4.7093,-4.7095,-4.7134,-4.7123,-4.7177,-4.7143,-4.7124,-4.714,-4.7138,-4.7174,-4.7178,-4.7191,-4.7243,-4.7245,-4.7207,-4.7209,-4.7211,-4.7211,0,0,0,0,0,0,0,-4.7026,-4.6977,-4.7086,-4.7094,-4.7095,-4.7143,-4.7144,-4.7145,-4.7142,-4.7141,-4.714,-4.7139,-4.7191,-4.7194,-4.7197,-4.724,0,0,-4.7207,-4.7208,0,0,0,0,0,0,0,0,-4.6974,-4.6976,-4.7087,-4.7087,-4.7088,-4.7143,-4.7144,-4.7144,-4.7142,-4.7141,-4.714,-4.7139,-4.7192,-4.7194,-4.7197,0,0,0,0,0,0,0,0,0,0,0,0,0,0,0,-4.7087,-4.7087,0,-4.7143,-4.7144,-4.7144,-4.7142,-4.7141,-4.714,-4.714,-4.7192,-4.7195,-4.7197,0,0,0,0,0,0,0,0,0,0,0,0,0,0,0,0,0,0,0,0,0,0,0,0,0,0,0,0,0,0,0,0,0,0,0,0,0,0,0,0,0,0,0,0,0,0,0,0,0,0,0,0,0,0,0,0,0,0,0,0,0,0,0,0,0,0,0,0,0]}]]]